NOAA 16 DEB, 41669

Orbit data source: Space-Track

NOAA 16 DEB, 41669 is space debris in SSO originally from a launch on Thu, 21 Sep 2000 UTC launched from the Air Force Western Test Range (AFWTR). Debris objects in space refer to the collection of defunct objects orbiting the Earth. Examples of debris include non-operational satellites, rocket bodies, and fragments generated from explosions, collisions, or faulty payload assembly.

Loading next visibility...
Identifier
41669, 2000-055PJ
Orbit
SSO
Country
Flag of USUS
Related business
Manufacturer
Unknown
Mission
Spacecraft
Bus & Motor
Unknown
Mass
Unknown
Launch date (UTC)
2000-09-21 (26 years ago)
Launch vehicle
Unknown
Launch site
Air Force Western Test Range (AFWTR)
Object type
Payload
Rocket body
Debris
Shape & HBR
Unknown shape, 0.1 m
Radar Cross Section
Medium (>0.1 m² and <1 m²)

Expand to show TLE details & history
Last TLE update: 2 days ago

TLE from 2 days ago
0 NOAA 16 DEB
1 41669U 00055PJ  26171.12396504  .00011755  00000-0  24511-2 0  9997
2 41669  98.7095 289.6570 0018102 130.3118 229.9666 14.60000203530062
Epoch: 2026-06-20T02:58Z
TLE epoch observation values (Epoch: 2026-06-20T02:58:30.579Z)
Latitude
0.00002°
Longitude
-23.31351°
Altitude
704.391 km
Speed
7.499 km/s
True Right ascension
19h 18m 37s
True Declination
0° 00' 00"
Sunlit
Object was in full shadow at epoch
Visualization orbit readout
Latitude
Unknown
Longitude
Unknown
Altitude
Unknown
Speed
Unknown
Apparent Right ascension
Unknown
Apparent Declination
Unknown
Sunlit
N/A
Visualization observer readout
Local Sidereal Time
21:39:47
Azimuth
Unknown
Elevation
Unknown
Doppler factor
Unknown
Orbital elements
Apogee altitude
703.074 km
Perigee altitude
677.483 km
Semi-major axis
7,068.416 km
Eccentricity
0.00181
Inclination
98.7095°
RAAN
289.657°
Arg. of periapsis
130.3118°
True anomaly
229.80801°
Mean anomaly
229.9666°
Eccentric anomaly
229.88728°
Mean motion
3.65225 °/min
Orbital period
98.57 mins
BSTAR
0.0024511
Loading maneuver chart data...
Computing Atmospheric mass density...
Loading historical data...
Loading historical data...
Loading historical data...
Loading historical data...
Loading historical data...
Loading historical data...
Loading historical data...

Documentation

Showing up to 5 results
|